#timestamp,LO_Frequency,Hit,StdDev 
1578217255.2,286046881.5,P
1578217275.1,286046881.9,P
1578217276.0,286046881.9,P
1578217295.8,286046880.2,Y
1578217315.6,286046998.4,P
1578217335.5,286047000.9,N
1578217355.3,286047000.8,N
1578217375.2,286046998.5,N
1578217395.9,286046998.7,N
1578217415.7,286046996.5,N
1578217435.6,286046996.9,N
1578217455.4,286046995.4,N
1578217475.2,286046997.6,N
1578217495.1,286046994.1,N
1578217496.0,286046994.1,N
1578217515.8,286046990.3,N
1578217535.7,286046988.8,N
1578217555.5,286046986.0,N
1578217575.3,286046983.7,N
1578217595.2,286046982.2,N
1578217615.0,286046981.2,N
1578217615.9,286046981.2,N
1578217635.7,286046979.0,N
1578217655.6,286046979.5,N
1578217675.4,286046979.9,N
1578217695.3,286046977.4,N
1578217715.1,286046978.1,N
1578217735.8,286046978.0,N
1578217755.7,286046974.1,N
1578217775.5,286046971.2,N
1578217795.4,286046969.8,N
1578217815.2,286046967.9,N
1578217835.0,286046966.1,N
1578217835.9,286046966.1,N
1578217855.8,286046966.4,Y
1578217875.6,286046982.4,P
1578217895.4,286046982.3,P
1578217915.3,286046985.1,P
1578217935.1,286046983.6,Y
1578217955.9,286046999.5,P
1578217975.7,286046995.0,N
1578217995.5,286046996.4,N
1578218015.4,286046994.5,N
1578218035.2,286046992.5,N
1578218055.0,286046990.7,N
1578218055.9,286046990.7,N
1578218075.8,286046991.2,N
1578218095.6,286046989.0,N
1578218115.5,286046989.5,N
1578218135.3,286046985.7,Y
1578218155.1,286046991.7,P
1578218175.9,286046990.1,P
1578218195.7,286046991.3,P
1578218215.5,286046987.3,Y
1578218235.4,286046996.0,P
1578218255.2,286046994.1,N
1578218275.1,286046992.6,P
1578218276.0,286046992.6,Y
1578218295.8,286047001.0,P
1578218315.6,286047000.0,N
1578218335.5,286046998.1,N
1578218355.3,286046998.3,N
1578218375.2,286046998.7,N
1578218395.9,286046995.4,N
